Location: Dalton
(34.7700°N, 84.9700°W)
Time: 14:09:57
(UTC-04:00)

OTV 5 (USA 277) - Pass Details

Date: 08 October 2017
Orbit: 404 x 417 km, 43.0° (Epoch: 07 September)

Event Time Altitude Azimuth Distance (km) Brightness Sun altitude
Rises 19:45:20 0° 214° (SSW) 2,339 ? -7.3°
Reaches altitude 10° 19:47:39 10° 201° (SSW) 1,480 ? -7.7°
Maximum altitude 19:50:29 25° 143° (SE) 866 ? -8.3°
Enters shadow 19:52:56 12° 89° (E) 1,353 ? -8.8°
